TimeEDT,TemperatureF,Dew PointF,Humidity,Sea Level PressureIn,VisibilityMPH,Wind Direction,Wind SpeedMPH,Gust SpeedMPH,PrecipitationIn,Events,Conditions,WindDirDegrees,DateUTC
12:03 AM,44.6,39.2,81,29.73,8.0,SE,10.4,-,0.01,Rain,Light Rain,130,2013-04-01 04:03:00
12:56 AM,45.0,41.0,86,29.72,10.0,ESE,9.2,-,0.04,Rain,Light Rain,110,2013-04-01 04:56:00
1:26 AM,44.6,42.8,93,29.64,10.0,East,6.9,-,0.00,Rain,Light Rain,100,2013-04-01 05:26:00
1:56 AM,44.6,42.8,93,29.61,3.0,East,10.4,-,N/A,Rain,Light Rain,100,2013-04-01 05:56:00
2:04 AM,44.6,42.8,93,29.60,2.5,East,9.2,-,0.00,Rain,Light Rain,100,2013-04-01 06:04:00
2:12 AM,44.6,42.8,93,29.59,3.0,ESE,8.1,-,0.00,Rain,Light Rain,110,2013-04-01 06:12:00
2:39 AM,44.6,42.8,93,29.58,2.5,ENE,5.8,-,0.01,Rain,Light Rain,70,2013-04-01 06:39:00
2:56 AM,43.0,42.1,97,29.61,2.0,NE,3.5,-,0.02,Rain,Light Rain,40,2013-04-01 06:56:00
3:31 AM,42.8,42.8,100,29.56,3.0,North,4.6,-,0.02,Rain,Light Rain,10,2013-04-01 07:31:00
3:56 AM,43.0,42.1,97,29.60,4.0,NNW,4.6,-,0.03,,Overcast,330,2013-04-01 07:56:00
4:56 AM,43.0,42.1,97,29.60,8.0,WNW,6.9,-,N/A,,Overcast,290,2013-04-01 08:56:00
5:56 AM,42.1,41.0,96,29.63,8.0,West,8.1,-,N/A,,Overcast,280,2013-04-01 09:56:00
6:56 AM,42.1,39.9,92,29.66,10.0,West,8.1,-,N/A,,Overcast,280,2013-04-01 10:56:00
7:56 AM,43.0,39.9,89,29.66,10.0,West,8.1,-,N/A,,Mostly Cloudy,280,2013-04-01 11:56:00
8:15 AM,44.6,41.0,87,29.61,10.0,WNW,9.2,-,N/A,,Scattered Clouds,300,2013-04-01 12:15:00
8:56 AM,44.6,39.2,81,29.62,10.0,West,9.2,-,N/A,,Partly Cloudy,270,2013-04-01 12:56:00
9:56 AM,48.9,39.9,71,29.66,10.0,West,10.4,-,N/A,,Mostly Cloudy,260,2013-04-01 13:56:00
10:56 AM,53.1,39.9,61,29.65,10.0,WSW,11.5,-,N/A,,Clear,240,2013-04-01 14:56:00
11:56 AM,55.9,37.9,51,29.62,10.0,West,8.1,-,N/A,,Clear,270,2013-04-01 15:56:00
12:56 PM,60.1,37.9,44,29.60,10.0,SSW,12.7,21.9,N/A,,Partly Cloudy,200,2013-04-01 16:56:00
1:56 PM,60.8,35.6,39,29.53,10.0,SSW,16.1,23.0,N/A,,Overcast,210,2013-04-01 17:56:00
2:56 PM,59.0,37.0,44,29.55,10.0,SW,12.7,24.2,0.00,Rain,Light Rain,230,2013-04-01 18:56:00
3:56 PM,53.1,37.0,55,29.56,10.0,WNW,24.2,34.5,0.00,,Mostly Cloudy,300,2013-04-01 19:56:00
4:03 PM,51.8,39.2,62,29.53,10.0,West,19.6,32.2,0.00,Rain,Light Rain,280,2013-04-01 20:03:00
4:56 PM,46.4,39.2,76,29.56,9.0,WNW,15.0,25.3,N/A,Rain,Light Rain,290,2013-04-01 20:56:00
5:56 PM,45.0,28.9,53,29.66,10.0,West,16.1,34.5,0.01,,Mostly Cloudy,270,2013-04-01 21:56:00
6:56 PM,41.0,24.8,53,29.66,10.0,WNW,19.6,27.6,N/A,,Mostly Cloudy,290,2013-04-01 22:56:00
7:56 PM,39.9,21.9,49,29.72,10.0,WNW,15.0,20.7,N/A,,Scattered Clouds,290,2013-04-01 23:56:00
8:56 PM,37.9,15.1,39,29.76,10.0,West,10.4,20.7,N/A,,Clear,280,2013-04-02 00:56:00
9:56 PM,37.0,10.9,34,29.79,10.0,WNW,13.8,24.2,N/A,,Clear,290,2013-04-02 01:56:00
10:56 PM,35.1,9.0,34,29.81,10.0,WNW,17.3,32.2,N/A,,Clear,300,2013-04-02 02:56:00
11:56 PM,34.0,10.0,37,29.83,10.0,WNW,19.6,26.5,N/A,,Clear,290,2013-04-02 03:56:00